Regional Weather Roundup
Issued by NWS Goodland, KS

Home | Current Version | Previous Version | Graphics & Text | Print | Product List | Glossary On
Versions: 1 2 3 4 5 6 7 8 9 10 11 12 13 14 15 16 17 18 19 20 21 22 23 24 25 26 27 28 29 30 31 32 33 34 35 36 37 38 39 40 41 42 43 44 45 46 47 48 49 50
000
ASUS43 KGLD 301659
RWRGLD

GOODLAND FORECAST AREA HOURLY WEATHER ROUNDUP
NATIONAL WEATHER SERVICE GOODLAND KS
1100 AM MDT SAT AUG 30 2014

...OFFICIAL OBSERVATIONS...

CITY           SKY/WX    TMP DP  RH WIND       PRES   REMARKS
GOODLAND KS    SUNNY     81  52  36 S10       30.03F
HILL CITY KS   SUNNY     80  60  50 SE6       29.98F
IMPERIAL NEB   SUNNY     75  59  57 SE13      29.99F
MCCOOK NEB     SUNNY     77  60  55 SE10      29.99F
AKRON CO       SUNNY     76  50  40 W8        30.03F
BURLINGTON CO  SUNNY     82  47  29 SW20G26   30.05F
LIMON CO       SUNNY     78  46  32 S12       30.09F
$$

...UNOFFICIAL OBSERVATIONS...

CITY           SKY/WX    TMP DP  RH WIND       PRES   REMARKS
COLBY KS       SUNNY     81  63  54 CALM      30.02F
GOVE KS          N/A     84  32  15 CALM        N/A
NORTON KS      SUNNY     79  55  44 SE7       29.98F
SHARON SPRINGS   N/A     82  56  40 S13         N/A
WAKEENEY KS      N/A     81  54  39 MISG        N/A
KIT CARSON CO    N/A     79  52  38 N6G13       N/A
YUMA CO          N/A     77  55  46 SW7         N/A
$$



USA.gov is the U.S. government's official web portal to all federal, state and local government web resources and services.